www.pogodaiklimat.ru

Погода и климат >> Архив погоды >> Ирак >> Basrah Airport


ПОГОДА в Basrah Airport

  • Прогноз погоды в Basrah Airport
  • Монитор погоды в Basrah Airport
  • Климат города

АРХИВ ПОГОДЫ в Basrah Airport

Время (UTC), дата Ветер
(напр.,м/с)
 
Видим.   Явления Облачность Т
(С)
Тd
(С)
f
(%)
Тe
(С)
Тes
(С)
Комфортность P
(гПа)
Po
(гПа)
Тmin
(С)
Tmax
(С)
R
(мм)
R24
(мм)
S
(см)
00 13.09 З 3 10 км ясно +24.9 +6.7 31 +25 +25 комфорт 1004.3 1004.0
03 13.09 З 6 10 км ясно +26.7 -0.6 17 +25 +25 комфорт 1004.8 1005.0
06 13.09 З 7 10 км ясно +38.0 -3.7 7 +34 +37 очень
жарко
1005.7 1006.0 +23.7
09 13.09 З 7 10 км ясно +46.2 -7.4 3 +42 +46 опасность
перегрева
1004.1 1004.0
12 13.09 СЗ 6 10 км ясно +47.2 -8.7 3 +43 +46 опасность
перегрева
1002.4 1002.0
15 13.09 СЗ 3 10 км ясно +43.0 -0.6 7 +39 +39 очень
жарко
1001.7 1002.0
18 13.09 З 3 10 км ясно +30.6 +6.2 22 +29 +29 жарко 1002.8 1003.0 +47.4
21 13.09 З 3 10 км ясно +27.6 +1.5 18 +26 +26 жарко 1001.7 1002.0
00 14.09 З 3 10 км ясно +25.0 +2.3 23 +24 +24 комфорт 1001.4 1001.0
06 14.09 З 2 8000 м пыль ясно +33.5 +5.5 17 +31 +41 жарко 1003.2 1003.0 +22.5
09 14.09 СВ 3 10 км ясно +43.5 +2.7 8 +40 +54 опасность
солнечного
удара
1002.7 1003.0
12 14.09 штиль 0 10 км ясно +46.8 -1.0 5 +43 +53 опасность
перегрева
1001.4 1001.0
15 14.09 СЗ 3 10 км ясно +41.9 +1.6 8 +38 +38 очень
жарко
1001.8 1002.0
18 14.09 СЗ 3 10 км ясно +36.7 +6.1 15 +34 +34 очень
жарко
1003.3 1003.0 +47.7
21 14.09 СЗ 5 10 км ясно +32.3 +10.2 26 +32 +32 жарко 1003.1 1003.0
00 15.09 ЮЗ 3 10 км ясно +26.2 +9.4 35 +27 +27 жарко 1003.2 1003.0
03 15.09 ЮЗ 3 7000 м пыль ясно +23.8 +3.7 27 +23 +23 комфорт 1004.0 1004.0
06 15.09 З 4 10 км ясно +36.7 +3.4 13 +34 +40 очень
жарко
1005.2 1005.0 +23.6
09 15.09 СЗ 6 10 км ясно +46.4 +2.6 7 +43 +50 опасность
перегрева
1004.2 1004.0
12 15.09 СЗ 7 10 км ясно +48.3 +1.4 6 +45 +47 опасность
перегрева
1003.3 1003.0
03 16.09 З 4 6000 м пыль ясно +25.9 +9.3 35 +26 +26 жарко 1005.6 1006.0
03 17.09 З 3 10 км ясно +24.9 +4.9 28 +24 +24 комфорт 1004.1 1004.0
09 17.09 СЗ 9 10 км ясно +46.9 +4.1 8 +44 +46 опасность
перегрева
1003.7 1004.0
15 17.09 СЗ 5 10 км ясно +41.8 +8.5 14 +40 +40 очень
жарко
1002.7 1003.0
21 17.09 СЗ 4 10 км ясно +30.5 +12.9 34 +32 +32 жарко 1003.7 1004.0
03 18.09 СВ 2 10 км ясно +24.9 +10.1 39 +26 +26 жарко 1004.5 1005.0
09 18.09 СЗ 6 10 км ясно +44.5 +7.1 11 +42 +49 опасность
перегрева
1004.8 1005.0
15 18.09 СЗ 4 10 км ясно +47.1 +3.7 7 +44 +44 опасность
перегрева
1003.4 1003.0
21 18.09 ЮВ 6 10 км ясно +32.5 +28.4 79 +54 +54 опасность
перегрева
1006.3 1006.0
03 19.09 штиль 0 3000 м дымка ясно +29.9 +27.2 85 +47 +47 опасность
перегрева
1006.0 1006.0
06 19.09 В 2 6000 м мгла ясно +34.5 +27.6 67 +54 +63 опасность
перегрева
1007.5 1008.0 +29.4
09 19.09 В 2 8000 м мгла ясно +41.7 +20.9 31 +48 +64 опасность
перегрева
1006.2 1006.0
12 19.09 В 4 8000 м мгла ясно +44.3 +17.3 21 +47 +52 опасность
перегрева
1004.5 1005.0
15 19.09 ЮВ 3 10 км ясно +40.7 +17.6 26 +43 +43 опасность
перегрева
1004.3 1004.0

 

Местоположение метеостанции Basrah Airport (Ирак): широта 30.52 долгота 47.78 высота над уровнем моря 3 м.

В архиве по умолчанию представлена погода в Basrah Airport за последнюю неделю. Архивные данные за месяц целиком и за предыдущие месяцы, начиная с января 2011 года, Вы можете получить, выбрав интересующий диапазон дат из раскрывающегося списка и нажав кнопку "Ввод!".


*Определитесь, кто Вы:
робот инопланетянин человек

Внимание! Время в таблицах - всемирное. Для получения местного времени необходимо прибавить поправку, которая в Basrah Airport равна 3 ч.

Смотрите также архив погоды в соседних городах и на ближайших метеорологических станциях:

Погода в Basrah (Ирак) (6 км)
Погода в Abadan (Иран) (48 км)
Погода в Abdaly (Кувейт) (50 км)
Погода в Sabriyah (Кувейт) (86 км)
Погода в Mitribah (Кувейт) (87 км)
Погода в Fao (Ирак) (92 км)
Погода в Bubiyan (Кувейт) (101 км)
Погода в Jal Aliyah (Кувейт) (103 км)
Погода в Ahwaz (Иран) (124 км)
Погода в Failaka Island (Кувейт) (126 км)

Пояснения к столбцам:

Ветер - указаны скорость ветра в м/с - средняя за 10 мин, порывы в срок и между сроками (в фигурных скобках) и направление, откуда дует ветер: С - северный, СВ - северо-восточный, В - восточный, ЮВ - юго-восточный, Ю - южный, ЮЗ - юго-западный, З - западный, СЗ - северо-западный.
Видимость - горизонтальная дальность видимости в метрах или километрах. При видимости от 1 до 10 км при отсутствии осадков обычно наблюдается дымка, при ухудшении видимости до 1 км и менее - туман. В сухую погоду видимость может ухудшаться дымом, пылью или мглою.
Явления - указаны атмосферные явления, наблюдавшиеся в срок или в последний час перед сроком; фигурными скобками обозначены явления, наблюдавшиеся между сроками (за 1-3 часа до срока); квадратными скобками обозначены град или гололедные отложения с указанием их диаметра в мм.
Облачность - указаны через наклонную черту общая и нижняя облачность в баллах и высота нижней границы облаков в метрах; квадратными скобками обозначены формы облаков: Ci - перистые, Cs - перисто-слоистые, Cc - перисто-кучевые, Ac - высококучевые, As - высокослоистые, Sc - слоисто-кучевые, Ns - слоисто-дождевые, Cu - кучевые, Cb - кучево-дождевые. Подробнее классификацию облаков см. в Атласе облаков (PDF).
T - Температура воздуха - температура, измеренная на высоте 2 м над землей.
Td - Температура точки росы - температура, при понижении до которой содержащийся в воздухе водяной пар достигнет насыщения.
f - Относительная влажность воздуха - влажноcть воздуха, измеренная на высоте 2 м над землей.
Te - Эффективная температура - температура, которую ощущает одетый по сезону человек в тени. Характеристика душности погоды. При расчете учитывается влияние влажности воздуха и скорости ветра на теплоощущения человека.
Tes - Эффективная температура на солнце - температура, которую ощущает человек, с поправкой на солнечный нагрев. Характеристика знойности погоды. Зависит от высоты солнца над горизонтом, облачности и скорости ветра. Ночью, в пасмурную погоду, а также при ветре 12 м/с и более поправка равна нулю.
P - Атмосферное давление - приведенное к уровню моря атмосферное давление.
Po - Атмосферное давление - измеренное на уровне метеостанции атмосферное давление.
Tmin - Минимальная температура - минимум температуры воздуха на высоте 2 м над землей.
Tmax - Максимальная температура - максимум температуры воздуха на высоте 2 м над землей.
R - Количество осадков - Количество выпавших осадков за период времени, мм. При наведении курсора мыши на число - период времени, за который выпало указанное количество осадков.
R24 - Количество осадков - Количество выпавших осадков за 24 часа, мм.
S - Снежный покров - Высота снежного покрова, см. При наведении курсора мыши на число - состояние снежного покрова и степень покрытия местности в баллах.